owner,sensor,date,latitude,longitude,vertical_datum,sea_water_practical_salinity,qcFlag 
ENP,ioos.station.NOAA.NDBC:TCVF1:1,2017-11-01T00:00:00Z,25.2130,-80.5330,1.5,0.5,1111122 
ENP,ioos.station.NOAA.NDBC:TCVF1:1,2017-11-01T02:00:00Z,25.2130,-80.5330,1.5,0.49,1111122 
ENP,ioos.station.NOAA.NDBC:TCVF1:1,2017-11-01T03:00:00Z,25.2130,-80.5330,1.5,0.49,1111122 
ENP,ioos.station.NOAA.NDBC:TCVF1:1,2017-11-01T06:00:00Z,25.2130,-80.5330,1.5,0.48,1111122 
ENP,ioos.station.NOAA.NDBC:TCVF1:1,2017-11-01T07:00:00Z,25.2130,-80.5330,1.5,0.48,1111122 
ENP,ioos.station.NOAA.NDBC:TCVF1:1,2017-11-01T08:00:00Z,25.2130,-80.5330,1.5,0.48,1111122 
ENP,ioos.station.NOAA.NDBC:TCVF1:1,2017-11-01T11:00:00Z,25.2130,-80.5330,1.5,0.48,1111122 
ENP,ioos.station.NOAA.NDBC:TCVF1:1,2017-11-01T12:00:00Z,25.2130,-80.5330,1.5,0.48,1111122 
ENP,ioos.station.NOAA.NDBC:TCVF1:1,2017-11-01T13:00:00Z,25.2130,-80.5330,1.5,0.49,1111122 
ENP,ioos.station.NOAA.NDBC:TCVF1:1,2017-11-01T14:00:00Z,25.2130,-80.5330,1.5,0.49,1111122 
ENP,ioos.station.NOAA.NDBC:TCVF1:1,2017-11-01T15:00:00Z,25.2130,-80.5330,1.5,0.49,1111122 
ENP,ioos.station.NOAA.NDBC:TCVF1:1,2017-11-01T16:00:00Z,25.2130,-80.5330,1.5,0.5,1111122 
ENP,ioos.station.NOAA.NDBC:TCVF1:1,2017-11-01T17:00:00Z,25.2130,-80.5330,1.5,0.51,1111122 
ENP,ioos.station.NOAA.NDBC:TCVF1:1,2017-11-01T18:00:00Z,25.2130,-80.5330,1.5,0.51,1111122 
ENP,ioos.station.NOAA.NDBC:TCVF1:1,2017-11-01T19:00:00Z,25.2130,-80.5330,1.5,0.51,1111122 
ENP,ioos.station.NOAA.NDBC:TCVF1:1,2017-11-01T20:00:00Z,25.2130,-80.5330,1.5,0.52,1111122 
ENP,ioos.station.NOAA.NDBC:TCVF1:1,2017-11-01T21:00:00Z,25.2130,-80.5330,1.5,0.52,1111122 
ENP,ioos.station.NOAA.NDBC:TCVF1:1,2017-11-01T22:00:00Z,25.2130,-80.5330,1.5,0.53,1111122 
ENP,ioos.station.NOAA.NDBC:TCVF1:1,2017-11-01T23:00:00Z,25.2130,-80.5330,1.5,0.53,1111122 
ENP,ioos.station.NOAA.NDBC:TCVF1:1,2017-11-02T00:00:00Z,25.2130,-80.5330,1.5,0.53,1111122 
ENP,ioos.station.NOAA.NDBC:TCVF1:1,2017-11-02T02:00:00Z,25.2130,-80.5330,1.5,0.53,1111122 
ENP,ioos.station.NOAA.NDBC:TCVF1:1,2017-11-02T03:00:00Z,25.2130,-80.5330,1.5,0.53,1111122 
ENP,ioos.station.NOAA.NDBC:TCVF1:1,2017-11-02T05:00:00Z,25.2130,-80.5330,1.5,17.54,1111122 
ENP,ioos.station.NOAA.NDBC:TCVF1:1,2017-11-02T06:00:00Z,25.2130,-80.5330,1.5,18.56,1111122 
ENP,ioos.station.NOAA.NDBC:TCVF1:1,2017-11-02T07:00:00Z,25.2130,-80.5330,1.5,1.48,1111122 
ENP,ioos.station.NOAA.NDBC:TCVF1:1,2017-11-02T08:00:00Z,25.2130,-80.5330,1.5,17.54,1111122 
ENP,ioos.station.NOAA.NDBC:TCVF1:1,2017-11-02T10:00:00Z,25.2130,-80.5330,1.5,20.54,1111122 
ENP,ioos.station.NOAA.NDBC:TCVF1:1,2017-11-02T11:00:00Z,25.2130,-80.5330,1.5,20.82,1111122 
ENP,ioos.station.NOAA.NDBC:TCVF1:1,2017-11-02T12:00:00Z,25.2130,-80.5330,1.5,1.08,1111122 
ENP,ioos.station.NOAA.NDBC:TCVF1:1,2017-11-02T13:00:00Z,25.2130,-80.5330,1.5,16.53,1111122 
ENP,ioos.station.NOAA.NDBC:TCVF1:1,2017-11-02T14:00:00Z,25.2130,-80.5330,1.5,20.68,1111122 
ENP,ioos.station.NOAA.NDBC:TCVF1:1,2017-11-02T15:00:00Z,25.2130,-80.5330,1.5,14.93,1111122 
ENP,ioos.station.NOAA.NDBC:TCVF1:1,2017-11-02T16:00:00Z,25.2130,-80.5330,1.5,21.44,1111122 
ENP,ioos.station.NOAA.NDBC:TCVF1:1,2017-11-02T17:00:00Z,25.2130,-80.5330,1.5,3.13,1111122 
ENP,ioos.station.NOAA.NDBC:TCVF1:1,2017-11-02T18:00:00Z,25.2130,-80.5330,1.5,2.59,1111122 
ENP,ioos.station.NOAA.NDBC:TCVF1:1,2017-11-02T19:00:00Z,25.2130,-80.5330,1.5,1.78,1111122 
ENP,ioos.station.NOAA.NDBC:TCVF1:1,2017-11-02T20:00:00Z,25.2130,-80.5330,1.5,1.15,1111122 
ENP,ioos.station.NOAA.NDBC:TCVF1:1,2017-11-02T21:00:00Z,25.2130,-80.5330,1.5,1.06,1111122 
ENP,ioos.station.NOAA.NDBC:TCVF1:1,2017-11-02T22:00:00Z,25.2130,-80.5330,1.5,0.81,1111122 
ENP,ioos.station.NOAA.NDBC:TCVF1:1,2017-11-02T23:00:00Z,25.2130,-80.5330,1.5,0.63,1111122 
ENP,ioos.station.NOAA.NDBC:TCVF1:1,2017-11-03T00:00:00Z,25.2130,-80.5330,1.5,0.59,1111122 
ENP,ioos.station.NOAA.NDBC:TCVF1:1,2017-11-03T02:00:00Z,25.2130,-80.5330,1.5,16.47,1111122 
ENP,ioos.station.NOAA.NDBC:TCVF1:1,2017-11-03T03:00:00Z,25.2130,-80.5330,1.5,19.17,1111122 
ENP,ioos.station.NOAA.NDBC:TCVF1:1,2017-11-03T05:00:00Z,25.2130,-80.5330,1.5,20.54,1111122 
ENP,ioos.station.NOAA.NDBC:TCVF1:1,2017-11-03T06:00:00Z,25.2130,-80.5330,1.5,3.81,1111122 
ENP,ioos.station.NOAA.NDBC:TCVF1:1,2017-11-03T07:00:00Z,25.2130,-80.5330,1.5,2.73,1111122 
ENP,ioos.station.NOAA.NDBC:TCVF1:1,2017-11-03T08:00:00Z,25.2130,-80.5330,1.5,2.22,1111122 
ENP,ioos.station.NOAA.NDBC:TCVF1:1,2017-11-03T10:00:00Z,25.2130,-80.5330,1.5,1.39,1111122 
ENP,ioos.station.NOAA.NDBC:TCVF1:1,2017-11-03T11:00:00Z,25.2130,-80.5330,1.5,1.32,1111122 
ENP,ioos.station.NOAA.NDBC:TCVF1:1,2017-11-03T12:00:00Z,25.2130,-80.5330,1.5,1.3,1111122 
ENP,ioos.station.NOAA.NDBC:TCVF1:1,2017-11-03T13:00:00Z,25.2130,-80.5330,1.5,12.88,1111122 
ENP,ioos.station.NOAA.NDBC:TCVF1:1,2017-11-03T14:00:00Z,25.2130,-80.5330,1.5,18.22,1111122 
ENP,ioos.station.NOAA.NDBC:TCVF1:1,2017-11-03T15:00:00Z,25.2130,-80.5330,1.5,20.27,1111122 
ENP,ioos.station.NOAA.NDBC:TCVF1:1,2017-11-03T16:00:00Z,25.2130,-80.5330,1.5,4.31,1111122 
ENP,ioos.station.NOAA.NDBC:TCVF1:1,2017-11-03T17:00:00Z,25.2130,-80.5330,1.5,3.04,1111122 
ENP,ioos.station.NOAA.NDBC:TCVF1:1,2017-11-03T18:00:00Z,25.2130,-80.5330,1.5,2.79,1111122 
ENP,ioos.station.NOAA.NDBC:TCVF1:1,2017-11-03T19:00:00Z,25.2130,-80.5330,1.5,2.19,1111122 
ENP,ioos.station.NOAA.NDBC:TCVF1:1,2017-11-03T20:00:00Z,25.2130,-80.5330,1.5,1.78,1111122 
ENP,ioos.station.NOAA.NDBC:TCVF1:1,2017-11-03T21:00:00Z,25.2130,-80.5330,1.5,1.6,1111122 
ENP,ioos.station.NOAA.NDBC:TCVF1:1,2017-11-03T22:00:00Z,25.2130,-80.5330,1.5,17.61,1111122 
ENP,ioos.station.NOAA.NDBC:TCVF1:1,2017-11-03T23:00:00Z,25.2130,-80.5330,1.5,1.67,1111122 
ENP,ioos.station.NOAA.NDBC:TCVF1:1,2017-11-04T00:00:00Z,25.2130,-80.5330,1.5,3.52,1111122 
ENP,ioos.station.NOAA.NDBC:TCVF1:1,2017-11-04T03:00:00Z,25.2130,-80.5330,1.5,20.41,1111122 
ENP,ioos.station.NOAA.NDBC:TCVF1:1,2017-11-04T05:00:00Z,25.2130,-80.5330,1.5,21.65,1111122 
ENP,ioos.station.NOAA.NDBC:TCVF1:1,2017-11-04T06:00:00Z,25.2130,-80.5330,1.5,22.06,1111122 
ENP,ioos.station.NOAA.NDBC:TCVF1:1,2017-11-04T07:00:00Z,25.2130,-80.5330,1.5,5.52,1111122 
ENP,ioos.station.NOAA.NDBC:TCVF1:1,2017-11-04T08:00:00Z,25.2130,-80.5330,1.5,7.97,1111122 
ENP,ioos.station.NOAA.NDBC:TCVF1:1,2017-11-04T10:00:00Z,25.2130,-80.5330,1.5,3.23,1111122 
ENP,ioos.station.NOAA.NDBC:TCVF1:1,2017-11-04T11:00:00Z,25.2130,-80.5330,1.5,2.95,1111122 
ENP,ioos.station.NOAA.NDBC:TCVF1:1,2017-11-04T12:00:00Z,25.2130,-80.5330,1.5,2.78,1111122 
ENP,ioos.station.NOAA.NDBC:TCVF1:1,2017-11-04T13:00:00Z,25.2130,-80.5330,1.5,2.37,1111122 
ENP,ioos.station.NOAA.NDBC:TCVF1:1,2017-11-04T14:00:00Z,25.2130,-80.5330,1.5,2.3,1111122 
ENP,ioos.station.NOAA.NDBC:TCVF1:1,2017-11-04T15:00:00Z,25.2130,-80.5330,1.5,2.26,1111122 
ENP,ioos.station.NOAA.NDBC:TCVF1:1,2017-11-04T16:00:00Z,25.2130,-80.5330,1.5,21.23,1111122 
ENP,ioos.station.NOAA.NDBC:TCVF1:1,2017-11-04T17:00:00Z,25.2130,-80.5330,1.5,22.34,1111122 
ENP,ioos.station.NOAA.NDBC:TCVF1:1,2017-11-04T18:00:00Z,25.2130,-80.5330,1.5,22.76,1111122 
ENP,ioos.station.NOAA.NDBC:TCVF1:1,2017-11-04T19:00:00Z,25.2130,-80.5330,1.5,24.37,1111122 
ENP,ioos.station.NOAA.NDBC:TCVF1:1,2017-11-04T20:00:00Z,25.2130,-80.5330,1.5,21.93,1111122 
ENP,ioos.station.NOAA.NDBC:TCVF1:1,2017-11-04T21:00:00Z,25.2130,-80.5330,1.5,6.23,1111122 
ENP,ioos.station.NOAA.NDBC:TCVF1:1,2017-11-04T22:00:00Z,25.2130,-80.5330,1.5,15.0,1111122 
ENP,ioos.station.NOAA.NDBC:TCVF1:1,2017-11-04T23:00:00Z,25.2130,-80.5330,1.5,4.48,1111122 
ENP,ioos.station.NOAA.NDBC:TCVF1:1,2017-11-05T00:00:00Z,25.2130,-80.5330,1.5,6.07,1111122 
ENP,ioos.station.NOAA.NDBC:TCVF1:1,2017-11-05T02:00:00Z,25.2130,-80.5330,1.5,15.2,1111122 
ENP,ioos.station.NOAA.NDBC:TCVF1:1,2017-11-05T03:00:00Z,25.2130,-80.5330,1.5,18.7,1111122 
ENP,ioos.station.NOAA.NDBC:TCVF1:1,2017-11-05T07:00:00Z,25.2130,-80.5330,1.5,22.34,1111122 
ENP,ioos.station.NOAA.NDBC:TCVF1:1,2017-11-05T08:00:00Z,25.2130,-80.5330,1.5,22.83,1111122 
ENP,ioos.station.NOAA.NDBC:TCVF1:1,2017-11-05T09:00:00Z,25.2130,-80.5330,1.5,23.18,1111122 
ENP,ioos.station.NOAA.NDBC:TCVF1:1,2017-11-05T12:00:00Z,25.2130,-80.5330,1.5,5.4,1111122 
ENP,ioos.station.NOAA.NDBC:TCVF1:1,2017-11-05T13:00:00Z,25.2130,-80.5330,1.5,5.14,1111122 
ENP,ioos.station.NOAA.NDBC:TCVF1:1,2017-11-05T14:00:00Z,25.2130,-80.5330,1.5,4.97,1111122 
ENP,ioos.station.NOAA.NDBC:TCVF1:1,2017-11-05T15:00:00Z,25.2130,-80.5330,1.5,5.12,1111122 
ENP,ioos.station.NOAA.NDBC:TCVF1:1,2017-11-05T16:00:00Z,25.2130,-80.5330,1.5,19.93,1111122 
ENP,ioos.station.NOAA.NDBC:TCVF1:1,2017-11-05T17:00:00Z,25.2130,-80.5330,1.5,22.13,1111122 
ENP,ioos.station.NOAA.NDBC:TCVF1:1,2017-11-05T18:00:00Z,25.2130,-80.5330,1.5,22.76,1111122 
ENP,ioos.station.NOAA.NDBC:TCVF1:1,2017-11-05T19:00:00Z,25.2130,-80.5330,1.5,23.39,1111122 
ENP,ioos.station.NOAA.NDBC:TCVF1:1,2017-11-05T20:00:00Z,25.2130,-80.5330,1.5,23.67,1111122 
ENP,ioos.station.NOAA.NDBC:TCVF1:1,2017-11-05T21:00:00Z,25.2130,-80.5330,1.5,23.81,1111122 
ENP,ioos.station.NOAA.NDBC:TCVF1:1,2017-11-05T22:00:00Z,25.2130,-80.5330,1.5,23.88,1111122 
ENP,ioos.station.NOAA.NDBC:TCVF1:1,2017-11-05T23:00:00Z,25.2130,-80.5330,1.5,22.69,1111122 
ENP,ioos.station.NOAA.NDBC:TCVF1:1,2017-11-06T00:00:00Z,25.2130,-80.5330,1.5,21.03,1111122 
ENP,ioos.station.NOAA.NDBC:TCVF1:1,2017-11-06T01:00:00Z,25.2130,-80.5330,1.5,21.99,1111122 
ENP,ioos.station.NOAA.NDBC:TCVF1:1,2017-11-06T03:00:00Z,25.2130,-80.5330,1.5,23.46,1111122 
ENP,ioos.station.NOAA.NDBC:TCVF1:1,2017-11-06T04:00:00Z,25.2130,-80.5330,1.5,23.6,1111122 
ENP,ioos.station.NOAA.NDBC:TCVF1:1,2017-11-06T06:00:00Z,25.2130,-80.5330,1.5,23.74,1111122 
ENP,ioos.station.NOAA.NDBC:TCVF1:1,2017-11-06T07:00:00Z,25.2130,-80.5330,1.5,23.81,1111122 
ENP,ioos.station.NOAA.NDBC:TCVF1:1,2017-11-06T08:00:00Z,25.2130,-80.5330,1.5,23.81,1111122 
ENP,ioos.station.NOAA.NDBC:TCVF1:1,2017-11-06T09:00:00Z,25.2130,-80.5330,1.5,23.88,1111122 
ENP,ioos.station.NOAA.NDBC:TCVF1:1,2017-11-06T11:00:00Z,25.2130,-80.5330,1.5,23.95,1111122 
ENP,ioos.station.NOAA.NDBC:TCVF1:1,2017-11-06T12:00:00Z,25.2130,-80.5330,1.5,24.02,1111122 
ENP,ioos.station.NOAA.NDBC:TCVF1:1,2017-11-06T13:00:00Z,25.2130,-80.5330,1.5,21.93,1111122 
ENP,ioos.station.NOAA.NDBC:TCVF1:1,2017-11-06T14:00:00Z,25.2130,-80.5330,1.5,19.24,1111122 
ENP,ioos.station.NOAA.NDBC:TCVF1:1,2017-11-06T15:00:00Z,25.2130,-80.5330,1.5,22.27,1111122 
ENP,ioos.station.NOAA.NDBC:TCVF1:1,2017-11-06T16:00:00Z,25.2130,-80.5330,1.5,22.9,1111122 
ENP,ioos.station.NOAA.NDBC:TCVF1:1,2017-11-06T17:00:00Z,25.2130,-80.5330,1.5,23.39,1111122 
ENP,ioos.station.NOAA.NDBC:TCVF1:1,2017-11-06T18:00:00Z,25.2130,-80.5330,1.5,23.67,1111122 
ENP,ioos.station.NOAA.NDBC:TCVF1:1,2017-11-06T19:00:00Z,25.2130,-80.5330,1.5,23.81,1111122 
ENP,ioos.station.NOAA.NDBC:TCVF1:1,2017-11-06T20:00:00Z,25.2130,-80.5330,1.5,23.88,1111122 
ENP,ioos.station.NOAA.NDBC:TCVF1:1,2017-11-06T21:00:00Z,25.2130,-80.5330,1.5,23.95,1111122 
ENP,ioos.station.NOAA.NDBC:TCVF1:1,2017-11-06T22:00:00Z,25.2130,-80.5330,1.5,23.25,1111122 
ENP,ioos.station.NOAA.NDBC:TCVF1:1,2017-11-06T23:00:00Z,25.2130,-80.5330,1.5,14.86,1111122 
ENP,ioos.station.NOAA.NDBC:TCVF1:1,2017-11-07T00:00:00Z,25.2130,-80.5330,1.5,11.32,1111122 
ENP,ioos.station.NOAA.NDBC:TCVF1:1,2017-11-07T01:00:00Z,25.2130,-80.5330,1.5,9.53,1111122 
ENP,ioos.station.NOAA.NDBC:TCVF1:1,2017-11-07T03:00:00Z,25.2130,-80.5330,1.5,6.37,1111122 
ENP,ioos.station.NOAA.NDBC:TCVF1:1,2017-11-07T04:00:00Z,25.2130,-80.5330,1.5,12.56,1111122 
ENP,ioos.station.NOAA.NDBC:TCVF1:1,2017-11-07T06:00:00Z,25.2130,-80.5330,1.5,20.75,1111122 
ENP,ioos.station.NOAA.NDBC:TCVF1:1,2017-11-07T07:00:00Z,25.2130,-80.5330,1.5,21.86,1111122 
ENP,ioos.station.NOAA.NDBC:TCVF1:1,2017-11-07T08:00:00Z,25.2130,-80.5330,1.5,22.55,1111122 
ENP,ioos.station.NOAA.NDBC:TCVF1:1,2017-11-07T09:00:00Z,25.2130,-80.5330,1.5,22.76,1111122 
ENP,ioos.station.NOAA.NDBC:TCVF1:1,2017-11-07T11:00:00Z,25.2130,-80.5330,1.5,10.81,1111122 
ENP,ioos.station.NOAA.NDBC:TCVF1:1,2017-11-07T12:00:00Z,25.2130,-80.5330,1.5,7.67,1111122 
ENP,ioos.station.NOAA.NDBC:TCVF1:1,2017-11-07T13:00:00Z,25.2130,-80.5330,1.5,6.23,1111122 
ENP,ioos.station.NOAA.NDBC:TCVF1:1,2017-11-07T14:00:00Z,25.2130,-80.5330,1.5,5.38,1111122 
ENP,ioos.station.NOAA.NDBC:TCVF1:1,2017-11-07T15:00:00Z,25.2130,-80.5330,1.5,4.8,1111122 
ENP,ioos.station.NOAA.NDBC:TCVF1:1,2017-11-07T16:00:00Z,25.2130,-80.5330,1.5,4.32,1111122 
ENP,ioos.station.NOAA.NDBC:TCVF1:1,2017-11-07T17:00:00Z,25.2130,-80.5330,1.5,3.8,1111122 
ENP,ioos.station.NOAA.NDBC:TCVF1:1,2017-11-07T18:00:00Z,25.2130,-80.5330,1.5,3.77,1111122 
ENP,ioos.station.NOAA.NDBC:TCVF1:1,2017-11-07T19:00:00Z,25.2130,-80.5330,1.5,4.77,1111122 
ENP,ioos.station.NOAA.NDBC:TCVF1:1,2017-11-07T20:00:00Z,25.2130,-80.5330,1.5,8.09,1111122 
ENP,ioos.station.NOAA.NDBC:TCVF1:1,2017-11-07T21:00:00Z,25.2130,-80.5330,1.5,6.78,1111122 
ENP,ioos.station.NOAA.NDBC:TCVF1:1,2017-11-07T22:00:00Z,25.2130,-80.5330,1.5,4.41,1111122 
ENP,ioos.station.NOAA.NDBC:TCVF1:1,2017-11-07T23:00:00Z,25.2130,-80.5330,1.5,3.47,1111122 
ENP,ioos.station.NOAA.NDBC:TCVF1:1,2017-11-08T00:00:00Z,25.2130,-80.5330,1.5,2.29,1111122 
ENP,ioos.station.NOAA.NDBC:TCVF1:1,2017-11-08T01:00:00Z,25.2130,-80.5330,1.5,17.48,1111122 
ENP,ioos.station.NOAA.NDBC:TCVF1:1,2017-11-08T04:00:00Z,25.2130,-80.5330,1.5,21.03,1111122 
ENP,ioos.station.NOAA.NDBC:TCVF1:1,2017-11-08T06:00:00Z,25.2130,-80.5330,1.5,6.44,1111122 
ENP,ioos.station.NOAA.NDBC:TCVF1:1,2017-11-08T07:00:00Z,25.2130,-80.5330,1.5,11.78,1111122 
ENP,ioos.station.NOAA.NDBC:TCVF1:1,2017-11-08T11:00:00Z,25.2130,-80.5330,1.5,19.52,1111122 
ENP,ioos.station.NOAA.NDBC:TCVF1:1,2017-11-08T12:00:00Z,25.2130,-80.5330,1.5,5.91,1111122 
ENP,ioos.station.NOAA.NDBC:TCVF1:1,2017-11-08T13:00:00Z,25.2130,-80.5330,1.5,4.74,1111122 
ENP,ioos.station.NOAA.NDBC:TCVF1:1,2017-11-08T14:00:00Z,25.2130,-80.5330,1.5,4.33,1111122 
ENP,ioos.station.NOAA.NDBC:TCVF1:1,2017-11-08T15:00:00Z,25.2130,-80.5330,1.5,4.22,1111122 
ENP,ioos.station.NOAA.NDBC:TCVF1:1,2017-11-08T16:00:00Z,25.2130,-80.5330,1.5,3.78,1111122 
ENP,ioos.station.NOAA.NDBC:TCVF1:1,2017-11-08T17:00:00Z,25.2130,-80.5330,1.5,2.84,1111122 
ENP,ioos.station.NOAA.NDBC:TCVF1:1,2017-11-08T18:00:00Z,25.2130,-80.5330,1.5,2.1,1111122 
ENP,ioos.station.NOAA.NDBC:TCVF1:1,2017-11-08T19:00:00Z,25.2130,-80.5330,1.5,1.76,1111122 
ENP,ioos.station.NOAA.NDBC:TCVF1:1,2017-11-08T20:00:00Z,25.2130,-80.5330,1.5,1.66,1111122 
ENP,ioos.station.NOAA.NDBC:TCVF1:1,2017-11-08T21:00:00Z,25.2130,-80.5330,1.5,1.73,1111122 
ENP,ioos.station.NOAA.NDBC:TCVF1:1,2017-11-08T22:00:00Z,25.2130,-80.5330,1.5,17.61,1111122 
ENP,ioos.station.NOAA.NDBC:TCVF1:1,2017-11-08T23:00:00Z,25.2130,-80.5330,1.5,2.22,1111122 
ENP,ioos.station.NOAA.NDBC:TCVF1:1,2017-11-09T00:00:00Z,25.2130,-80.5330,1.5,1.33,1111122 
ENP,ioos.station.NOAA.NDBC:TCVF1:1,2017-11-09T01:00:00Z,25.2130,-80.5330,1.5,1.12,1111122 
ENP,ioos.station.NOAA.NDBC:TCVF1:1,2017-11-09T03:00:00Z,25.2130,-80.5330,1.5,18.22,1111122 
ENP,ioos.station.NOAA.NDBC:TCVF1:1,2017-11-09T04:00:00Z,25.2130,-80.5330,1.5,20.27,1111122 
ENP,ioos.station.NOAA.NDBC:TCVF1:1,2017-11-09T06:00:00Z,25.2130,-80.5330,1.5,20.27,1111122 
ENP,ioos.station.NOAA.NDBC:TCVF1:1,2017-11-09T07:00:00Z,25.2130,-80.5330,1.5,19.86,1111122 
ENP,ioos.station.NOAA.NDBC:TCVF1:1,2017-11-09T08:00:00Z,25.2130,-80.5330,1.5,17.88,1111122 
ENP,ioos.station.NOAA.NDBC:TCVF1:1,2017-11-09T09:00:00Z,25.2130,-80.5330,1.5,4.35,1111122 
ENP,ioos.station.NOAA.NDBC:TCVF1:1,2017-11-09T11:00:00Z,25.2130,-80.5330,1.5,8.89,1111122 
ENP,ioos.station.NOAA.NDBC:TCVF1:1,2017-11-09T12:00:00Z,25.2130,-80.5330,1.5,5.43,1111122 
ENP,ioos.station.NOAA.NDBC:TCVF1:1,2017-11-09T13:00:00Z,25.2130,-80.5330,1.5,6.08,1111122 
ENP,ioos.station.NOAA.NDBC:TCVF1:1,2017-11-09T14:00:00Z,25.2130,-80.5330,1.5,4.9,1111122 
ENP,ioos.station.NOAA.NDBC:TCVF1:1,2017-11-09T15:00:00Z,25.2130,-80.5330,1.5,18.36,1111122 
ENP,ioos.station.NOAA.NDBC:TCVF1:1,2017-11-09T16:00:00Z,25.2130,-80.5330,1.5,11.0,1111122 
ENP,ioos.station.NOAA.NDBC:TCVF1:1,2017-11-09T17:00:00Z,25.2130,-80.5330,1.5,3.98,1111122 
ENP,ioos.station.NOAA.NDBC:TCVF1:1,2017-11-09T18:00:00Z,25.2130,-80.5330,1.5,8.96,1111122 
ENP,ioos.station.NOAA.NDBC:TCVF1:1,2017-11-09T19:00:00Z,25.2130,-80.5330,1.5,4.46,1111122 
ENP,ioos.station.NOAA.NDBC:TCVF1:1,2017-11-09T20:00:00Z,25.2130,-80.5330,1.5,2.5,1111122 
ENP,ioos.station.NOAA.NDBC:TCVF1:1,2017-11-09T21:00:00Z,25.2130,-80.5330,1.5,2.22,1111122 
ENP,ioos.station.NOAA.NDBC:TCVF1:1,2017-11-09T22:00:00Z,25.2130,-80.5330,1.5,2.04,1111122 
ENP,ioos.station.NOAA.NDBC:TCVF1:1,2017-11-09T23:00:00Z,25.2130,-80.5330,1.5,1.83,1111122 
ENP,ioos.station.NOAA.NDBC:TCVF1:1,2017-11-10T00:00:00Z,25.2130,-80.5330,1.5,16.26,1111122 
ENP,ioos.station.NOAA.NDBC:TCVF1:1,2017-11-10T01:00:00Z,25.2130,-80.5330,1.5,18.42,1111122 
ENP,ioos.station.NOAA.NDBC:TCVF1:1,2017-11-10T03:00:00Z,25.2130,-80.5330,1.5,19.99,1111122 
ENP,ioos.station.NOAA.NDBC:TCVF1:1,2017-11-10T04:00:00Z,25.2130,-80.5330,1.5,20.2,1111122 
ENP,ioos.station.NOAA.NDBC:TCVF1:1,2017-11-10T06:00:00Z,25.2130,-80.5330,1.5,14.66,1111122 
ENP,ioos.station.NOAA.NDBC:TCVF1:1,2017-11-10T07:00:00Z,25.2130,-80.5330,1.5,6.5,1111122 
ENP,ioos.station.NOAA.NDBC:TCVF1:1,2017-11-10T08:00:00Z,25.2130,-80.5330,1.5,7.49,1111122 
ENP,ioos.station.NOAA.NDBC:TCVF1:1,2017-11-10T09:00:00Z,25.2130,-80.5330,1.5,16.33,1111122 
ENP,ioos.station.NOAA.NDBC:TCVF1:1,2017-11-10T11:00:00Z,25.2130,-80.5330,1.5,14.0,1111122 
ENP,ioos.station.NOAA.NDBC:TCVF1:1,2017-11-10T12:00:00Z,25.2130,-80.5330,1.5,15.0,1111122 
ENP,ioos.station.NOAA.NDBC:TCVF1:1,2017-11-10T13:00:00Z,25.2130,-80.5330,1.5,6.17,1111122 
ENP,ioos.station.NOAA.NDBC:TCVF1:1,2017-11-10T14:00:00Z,25.2130,-80.5330,1.5,6.9,1111122 
ENP,ioos.station.NOAA.NDBC:TCVF1:1,2017-11-10T15:00:00Z,25.2130,-80.5330,1.5,4.4,1111122 
ENP,ioos.station.NOAA.NDBC:TCVF1:1,2017-11-10T16:00:00Z,25.2130,-80.5330,1.5,3.19,1111122 
ENP,ioos.station.NOAA.NDBC:TCVF1:1,2017-11-10T17:00:00Z,25.2130,-80.5330,1.5,3.4,1111122 
ENP,ioos.station.NOAA.NDBC:TCVF1:1,2017-11-10T18:00:00Z,25.2130,-80.5330,1.5,16.26,1111122 
ENP,ioos.station.NOAA.NDBC:TCVF1:1,2017-11-10T19:00:00Z,25.2130,-80.5330,1.5,2.49,1111122 
ENP,ioos.station.NOAA.NDBC:TCVF1:1,2017-11-10T20:00:00Z,25.2130,-80.5330,1.5,1.69,1111122 
ENP,ioos.station.NOAA.NDBC:TCVF1:1,2017-11-10T21:00:00Z,25.2130,-80.5330,1.5,1.38,1111122 
ENP,ioos.station.NOAA.NDBC:TCVF1:1,2017-11-10T22:00:00Z,25.2130,-80.5330,1.5,1.26,1111122 
ENP,ioos.station.NOAA.NDBC:TCVF1:1,2017-11-10T23:00:00Z,25.2130,-80.5330,1.5,1.22,1111122 
ENP,ioos.station.NOAA.NDBC:TCVF1:1,2017-11-11T00:00:00Z,25.2130,-80.5330,1.5,1.18,1111122 
ENP,ioos.station.NOAA.NDBC:TCVF1:1,2017-11-11T01:00:00Z,25.2130,-80.5330,1.5,1.16,1111122 
ENP,ioos.station.NOAA.NDBC:TCVF1:1,2017-11-11T03:00:00Z,25.2130,-80.5330,1.5,1.12,1111122 
ENP,ioos.station.NOAA.NDBC:TCVF1:1,2017-11-11T04:00:00Z,25.2130,-80.5330,1.5,1.12,1111122 
ENP,ioos.station.NOAA.NDBC:TCVF1:1,2017-11-11T06:00:00Z,25.2130,-80.5330,1.5,1.14,1111122 
ENP,ioos.station.NOAA.NDBC:TCVF1:1,2017-11-11T07:00:00Z,25.2130,-80.5330,1.5,1.14,1111122 
ENP,ioos.station.NOAA.NDBC:TCVF1:1,2017-11-11T08:00:00Z,25.2130,-80.5330,1.5,1.14,1111122 
ENP,ioos.station.NOAA.NDBC:TCVF1:1,2017-11-11T09:00:00Z,25.2130,-80.5330,1.5,1.13,1111122 
ENP,ioos.station.NOAA.NDBC:TCVF1:1,2017-11-11T11:00:00Z,25.2130,-80.5330,1.5,1.05,1111122 
ENP,ioos.station.NOAA.NDBC:TCVF1:1,2017-11-11T12:00:00Z,25.2130,-80.5330,1.5,1.01,1111122 
ENP,ioos.station.NOAA.NDBC:TCVF1:1,2017-11-11T13:00:00Z,25.2130,-80.5330,1.5,1.0,1111122 
ENP,ioos.station.NOAA.NDBC:TCVF1:1,2017-11-11T14:00:00Z,25.2130,-80.5330,1.5,1.03,1111122 
ENP,ioos.station.NOAA.NDBC:TCVF1:1,2017-11-11T15:00:00Z,25.2130,-80.5330,1.5,1.04,1111122 
ENP,ioos.station.NOAA.NDBC:TCVF1:1,2017-11-11T16:00:00Z,25.2130,-80.5330,1.5,1.05,1111122 
ENP,ioos.station.NOAA.NDBC:TCVF1:1,2017-11-11T17:00:00Z,25.2130,-80.5330,1.5,1.05,1111122 
ENP,ioos.station.NOAA.NDBC:TCVF1:1,2017-11-11T18:00:00Z,25.2130,-80.5330,1.5,1.05,1111122 
ENP,ioos.station.NOAA.NDBC:TCVF1:1,2017-11-11T19:00:00Z,25.2130,-80.5330,1.5,1.06,1111122 
ENP,ioos.station.NOAA.NDBC:TCVF1:1,2017-11-11T20:00:00Z,25.2130,-80.5330,1.5,1.06,1111122 
ENP,ioos.station.NOAA.NDBC:TCVF1:1,2017-11-11T21:00:00Z,25.2130,-80.5330,1.5,1.06,1111122 
ENP,ioos.station.NOAA.NDBC:TCVF1:1,2017-11-11T22:00:00Z,25.2130,-80.5330,1.5,1.06,1111122 
ENP,ioos.station.NOAA.NDBC:TCVF1:1,2017-11-11T23:00:00Z,25.2130,-80.5330,1.5,1.06,1111122 
ENP,ioos.station.NOAA.NDBC:TCVF1:1,2017-11-12T00:00:00Z,25.2130,-80.5330,1.5,1.08,1111122 
ENP,ioos.station.NOAA.NDBC:TCVF1:1,2017-11-12T01:00:00Z,25.2130,-80.5330,1.5,1.09,1111122 
ENP,ioos.station.NOAA.NDBC:TCVF1:1,2017-11-12T04:00:00Z,25.2130,-80.5330,1.5,1.11,1111122 
ENP,ioos.station.NOAA.NDBC:TCVF1:1,2017-11-12T07:00:00Z,25.2130,-80.5330,1.5,1.07,1111122 
ENP,ioos.station.NOAA.NDBC:TCVF1:1,2017-11-12T08:00:00Z,25.2130,-80.5330,1.5,1.06,1111122 
ENP,ioos.station.NOAA.NDBC:TCVF1:1,2017-11-12T09:00:00Z,25.2130,-80.5330,1.5,1.05,1111122 
ENP,ioos.station.NOAA.NDBC:TCVF1:1,2017-11-12T12:00:00Z,25.2130,-80.5330,1.5,1.07,1111122 
ENP,ioos.station.NOAA.NDBC:TCVF1:1,2017-11-12T13:00:00Z,25.2130,-80.5330,1.5,1.09,1111122 
ENP,ioos.station.NOAA.NDBC:TCVF1:1,2017-11-12T14:00:00Z,25.2130,-80.5330,1.5,1.12,1111122 
ENP,ioos.station.NOAA.NDBC:TCVF1:1,2017-11-12T15:00:00Z,25.2130,-80.5330,1.5,1.18,1111122 
ENP,ioos.station.NOAA.NDBC:TCVF1:1,2017-11-12T16:00:00Z,25.2130,-80.5330,1.5,1.25,1111122 
ENP,ioos.station.NOAA.NDBC:TCVF1:1,2017-11-12T17:00:00Z,25.2130,-80.5330,1.5,1.25,1111122 
ENP,ioos.station.NOAA.NDBC:TCVF1:1,2017-11-12T18:00:00Z,25.2130,-80.5330,1.5,1.25,1111122 
ENP,ioos.station.NOAA.NDBC:TCVF1:1,2017-11-12T19:00:00Z,25.2130,-80.5330,1.5,1.29,1111122 
ENP,ioos.station.NOAA.NDBC:TCVF1:1,2017-11-12T20:00:00Z,25.2130,-80.5330,1.5,1.21,1111122 
ENP,ioos.station.NOAA.NDBC:TCVF1:1,2017-11-12T21:00:00Z,25.2130,-80.5330,1.5,1.16,1111122 
ENP,ioos.station.NOAA.NDBC:TCVF1:1,2017-11-12T22:00:00Z,25.2130,-80.5330,1.5,1.13,1111122 
ENP,ioos.station.NOAA.NDBC:TCVF1:1,2017-11-12T23:00:00Z,25.2130,-80.5330,1.5,1.11,1111122 
ENP,ioos.station.NOAA.NDBC:TCVF1:1,2017-11-13T00:00:00Z,25.2130,-80.5330,1.5,1.09,1111122 
ENP,ioos.station.NOAA.NDBC:TCVF1:1,2017-11-13T01:00:00Z,25.2130,-80.5330,1.5,1.09,1111122 
ENP,ioos.station.NOAA.NDBC:TCVF1:1,2017-11-13T03:00:00Z,25.2130,-80.5330,1.5,1.11,1111122 
ENP,ioos.station.NOAA.NDBC:TCVF1:1,2017-11-13T04:00:00Z,25.2130,-80.5330,1.5,1.12,1111122 
ENP,ioos.station.NOAA.NDBC:TCVF1:1,2017-11-13T06:00:00Z,25.2130,-80.5330,1.5,1.13,1111122 
ENP,ioos.station.NOAA.NDBC:TCVF1:1,2017-11-13T07:00:00Z,25.2130,-80.5330,1.5,1.13,1111122 
ENP,ioos.station.NOAA.NDBC:TCVF1:1,2017-11-13T08:00:00Z,25.2130,-80.5330,1.5,1.14,1111122 
ENP,ioos.station.NOAA.NDBC:TCVF1:1,2017-11-13T09:00:00Z,25.2130,-80.5330,1.5,1.16,1111122 
ENP,ioos.station.NOAA.NDBC:TCVF1:1,2017-11-13T11:00:00Z,25.2130,-80.5330,1.5,4.45,1111122 
ENP,ioos.station.NOAA.NDBC:TCVF1:1,2017-11-13T12:00:00Z,25.2130,-80.5330,1.5,16.94,1111122 
ENP,ioos.station.NOAA.NDBC:TCVF1:1,2017-11-13T13:00:00Z,25.2130,-80.5330,1.5,19.52,1111122 
ENP,ioos.station.NOAA.NDBC:TCVF1:1,2017-11-13T14:00:00Z,25.2130,-80.5330,1.5,20.75,1111122 
ENP,ioos.station.NOAA.NDBC:TCVF1:1,2017-11-13T15:00:00Z,25.2130,-80.5330,1.5,20.96,1111122 
ENP,ioos.station.NOAA.NDBC:TCVF1:1,2017-11-13T16:00:00Z,25.2130,-80.5330,1.5,21.03,1111122 
ENP,ioos.station.NOAA.NDBC:TCVF1:1,2017-11-13T17:00:00Z,25.2130,-80.5330,1.5,22.48,1111122 
ENP,ioos.station.NOAA.NDBC:TCVF1:1,2017-11-13T18:00:00Z,25.2130,-80.5330,1.5,23.46,1111122 
ENP,ioos.station.NOAA.NDBC:TCVF1:1,2017-11-13T19:00:00Z,25.2130,-80.5330,1.5,12.36,1111122 
ENP,ioos.station.NOAA.NDBC:TCVF1:1,2017-11-13T20:00:00Z,25.2130,-80.5330,1.5,8.21,1111122 
ENP,ioos.station.NOAA.NDBC:TCVF1:1,2017-11-13T21:00:00Z,25.2130,-80.5330,1.5,4.9,1111122 
ENP,ioos.station.NOAA.NDBC:TCVF1:1,2017-11-13T22:00:00Z,25.2130,-80.5330,1.5,3.35,1111122 
ENP,ioos.station.NOAA.NDBC:TCVF1:1,2017-11-13T23:00:00Z,25.2130,-80.5330,1.5,2.26,1111122 
ENP,ioos.station.NOAA.NDBC:TCVF1:1,2017-11-14T00:00:00Z,25.2130,-80.5330,1.5,1.77,1111122 